Location: New Canada
(47.1017°N, 68.5042°W)
Time: 12:32:41
(UTC+00:00)

BlueWalker 3 - Pass Details

Date: 06 December 2022
Orbit: 499 x 517 km, 53.2° (Epoch: 01 February)

Event Time Altitude Azimuth Distance (km) Brightness Sun altitude
Rises 22:48:26 0° 298° (WNW) 2,629 6.4 -20.2°
Reaches altitude 10° 22:50:40 10° 302° (WNW) 1,736 5.3 -20.5°
Enters shadow 22:54:27 62° 13° (NNE) 575 2.0 -21.2°
